Ionia, MI

5:40 AM EST on December 13, 2019 (GMT -0500)
Ionia

Weather History for KY70 - November, 2019

Change the Weather History Date:

Tuesday, November 12, 2019

  Actual Average (KGRR) Record (KGRR)
Temperature  
Mean Temperature 16 °F -  
Max Temperature 25 °F 44 °F 68 °F (1902)
Min Temperature 9 °F 29 °F 15 °F (1986)
Degree Days  
Heating Degree Days 48    
Moisture  
Dew Point 10 °F    
Average Humidity 69    
Maximum Humidity 87    
Minimum Humidity 47    
Precipitation  
Precipitation 0.00 in - - ()
Sea Level Pressure  
Sea Level Pressure 30.30 in    
Wind  
Wind Speed 6 mph ()    
Max Wind Speed 14 mph    
Max Gust Speed 22 mph    
Visibility 9.7 miles    
Events Snow    
Averages and records for this station are not official NWS values.
T = Trace of Precipitation, MM = Missing Value Source: Averaged Metar Reports

Daily Weather History Graph

Daily Weather History Graph

Search for Another Location

Airport or City:

Astronomy

Nov. 12, 2019 Rise Set
Actual Time 7:28 AM EST 5:19 PM EST
Civil Twilight 6:58 AM EST 5:50 PM EST
Nautical Twilight 6:23 AM EST 6:24 PM EST
Astronomical Twilight 5:50 AM EST 6:57 PM EST
Moon 5:47 PM EST (11/12) 7:17 AM EST (11/12)
Length of Visible Light 10h 52m
Length of Day
9h 51m
Full, 100% of the Moon is Illuminated
Nov 12
Full
Nov 19
Last Quarter
Nov 26
New
Dec 4
First Quarter
Dec 12
Full

Hourly Weather History & Observations

Time (EST) Temp. Windchill Dew Point Humidity Pressure Visibility Wind Dir Wind Speed Gust Speed Precip Events Conditions
12:15 AM 19.9 °F 13.4 °F 12.0 °F 71% 30.20 in 10.0 mi NNE 4.6 mph - N/A   Overcast
12:35 AM 19.9 °F 14.9 °F 11.7 °F 70% 30.20 in 10.0 mi North 3.5 mph - N/A   Overcast
12:36 AM 19.9 °F 14.9 °F 11.8 °F 71% 30.20 in 10.0 mi North 3.5 mph - N/A   Overcast
12:55 AM 19.4 °F - 12.2 °F 74% 30.20 in 10.0 mi Calm Calm - N/A   Overcast
1:15 AM 19.9 °F - 12.0 °F 71% 30.20 in 10.0 mi Calm Calm - N/A   Overcast
1:35 AM 19.9 °F 13.4 °F 12.7 °F 74% 30.20 in 10.0 mi WNW 4.6 mph - N/A   Overcast
1:55 AM 20.1 °F 13.6 °F 13.3 °F 75% 30.20 in 10.0 mi NW 4.6 mph - N/A   Overcast
2:15 AM 20.1 °F 11.3 °F 13.8 °F 77% 30.21 in 10.0 mi NW 6.9 mph - N/A   Overcast
2:16 AM 20.1 °F 11.3 °F 13.8 °F 77% 30.21 in 10.0 mi NW 6.9 mph - N/A   Overcast
2:35 AM 19.9 °F 12.1 °F 13.5 °F 76% 30.21 in 10.0 mi NNW 5.8 mph - N/A   Overcast
2:55 AM 19.8 °F 9.1 °F 12.4 °F 73% 30.22 in 10.0 mi NNW 9.2 mph - N/A   Overcast
2:56 AM 19.8 °F 9.1 °F 12.4 °F 73% 30.22 in 10.0 mi NNW 9.2 mph - N/A   Overcast
3:15 AM 19.8 °F 9.9 °F 12.2 °F 72% 30.22 in 10.0 mi NW 8.1 mph - N/A   Overcast
3:16 AM 19.8 °F 9.9 °F 12.2 °F 72% 30.22 in 10.0 mi NW 8.1 mph - N/A   Overcast
3:35 AM 19.4 °F 10.4 °F 12.2 °F 74% 30.22 in 10.0 mi NW 6.9 mph - N/A   Overcast
3:55 AM 19.0 °F 12.3 °F 12.2 °F 75% 30.23 in 10.0 mi NW 4.6 mph - N/A   Overcast
3:56 AM 19.0 °F 12.3 °F 12.2 °F 75% 30.23 in 10.0 mi NW 4.6 mph - N/A   Overcast
4:15 AM 18.0 °F 12.7 °F 11.7 °F 76% 30.23 in 10.0 mi NW 3.5 mph - N/A   Overcast
4:16 AM 17.8 °F 12.5 °F 11.7 °F 77% 30.23 in 10.0 mi NW 3.5 mph - N/A   Overcast
4:35 AM 17.8 °F 10.9 °F 12.2 °F 79% 30.24 in 10.0 mi NW 4.6 mph - N/A   Overcast
4:55 AM 17.8 °F 8.5 °F 12.2 °F 79% 30.24 in 10.0 mi WNW 6.9 mph - N/A   Overcast
5:15 AM 17.2 °F 8.9 °F 12.0 °F 80% 30.25 in 10.0 mi WNW 5.8 mph - N/A   Mostly Cloudy
5:35 AM 14.7 °F 5.9 °F 10.4 °F 83% 30.25 in 10.0 mi WNW 5.8 mph - N/A   Scattered Clouds
5:36 AM 14.7 °F 5.9 °F 10.4 °F 83% 30.25 in 10.0 mi WNW 5.8 mph - N/A   Scattered Clouds
5:55 AM 14.0 °F 5.1 °F 10.2 °F 85% 30.26 in 10.0 mi WNW 5.8 mph - N/A   Clear
6:15 AM 14.7 °F 3.8 °F 10.8 °F 84% 30.26 in 10.0 mi West 8.1 mph - N/A   Clear
6:16 AM 14.7 °F 4.8 °F 10.9 °F 85% 30.26 in 10.0 mi West 6.9 mph - N/A   Clear
6:35 AM 14.9 °F 5.0 °F 11.3 °F 86% 30.26 in 10.0 mi West 6.9 mph - N/A   Scattered Clouds
6:36 AM 15.1 °F 5.2 °F 11.7 °F 86% 30.26 in 10.0 mi West 6.9 mph - N/A   Scattered Clouds
6:55 AM 16.9 °F 5.5 °F 13.3 °F 86% 30.27 in 10.0 mi West 9.2 mph - N/A   Overcast
7:15 AM 17.1 °F 8.7 °F 13.1 °F 84% 30.27 in 10.0 mi West 5.8 mph - N/A   Mostly Cloudy
7:35 AM 15.1 °F 6.4 °F 11.1 °F 84% 30.28 in 5.0 mi WSW 5.8 mph - N/A Snow Light Snow
7:55 AM 15.8 °F 7.2 °F 12.6 °F 87% 30.28 in 10.0 mi West 5.8 mph - N/A   Overcast
8:15 AM 15.6 °F 5.9 °F 12.4 °F 87% 30.29 in 5.0 mi West 6.9 mph - N/A   Overcast
8:16 AM 15.4 °F 5.6 °F 12.2 °F 87% 30.29 in 4.0 mi West 6.9 mph - N/A   Overcast
8:35 AM 17.1 °F 7.6 °F 13.6 °F 86% 30.30 in 10.0 mi West 6.9 mph - N/A   Mostly Cloudy
8:36 AM 17.2 °F 6.8 °F 13.6 °F 86% 30.30 in 10.0 mi West 8.1 mph - N/A   Mostly Cloudy
8:55 AM 19.6 °F 8.9 °F 14.0 °F 79% 30.31 in 10.0 mi West 9.2 mph - N/A   Scattered Clouds
8:56 AM 19.6 °F 8.9 °F 13.8 °F 78% 30.31 in 10.0 mi West 9.2 mph - N/A   Scattered Clouds
9:15 AM 20.3 °F 8.3 °F 13.5 °F 75% 30.31 in 10.0 mi WNW 11.5 mph - N/A   Scattered Clouds
9:35 AM 21.0 °F 9.3 °F 12.6 °F 70% 30.31 in 10.0 mi NW 11.5 mph - N/A   Clear
9:55 AM 21.7 °F 9.6 °F 11.1 °F 64% 30.31 in 10.0 mi WNW 12.7 mph 17.3 mph N/A   Clear
10:15 AM 22.1 °F 10.0 °F 10.2 °F 60% 30.32 in 10.0 mi WNW 12.7 mph - N/A   Clear
10:16 AM 22.1 °F 10.6 °F 10.2 °F 60% 30.32 in 10.0 mi NW 11.5 mph - N/A   Clear
10:35 AM 22.5 °F 11.1 °F 10.2 °F 59% 30.32 in 10.0 mi NW 11.5 mph 18.4 mph N/A   Clear
10:55 AM 23.0 °F 11.1 °F 10.6 °F 59% 30.32 in 10.0 mi WNW 12.7 mph 17.3 mph N/A   Clear
10:56 AM 23.0 °F 11.7 °F 10.6 °F 59% 30.32 in 10.0 mi WNW 11.5 mph 17.3 mph N/A   Clear
11:15 AM 23.4 °F 11.1 °F 10.9 °F 59% 30.32 in 10.0 mi WNW 13.8 mph - N/A   Clear
11:16 AM 23.4 °F 11.1 °F 10.8 °F 59% 30.32 in 10.0 mi WNW 13.8 mph - N/A   Clear
11:35 AM 23.5 °F 13.7 °F 9.3 °F 55% 30.32 in 10.0 mi NW 9.2 mph - N/A   Clear
11:36 AM 23.5 °F 14.5 °F 9.1 °F 54% 30.32 in 10.0 mi NW 8.1 mph - N/A   Clear
11:55 AM 24.3 °F 13.3 °F 9.1 °F 53% 30.32 in 10.0 mi NW 11.5 mph 18.4 mph N/A   Scattered Clouds
11:56 AM 24.3 °F 13.3 °F 9.0 °F 52% 30.32 in 10.0 mi NW 11.5 mph 18.4 mph N/A   Scattered Clouds
12:15 PM 23.0 °F 12.4 °F 9.5 °F 56% 30.32 in 10.0 mi WNW 10.4 mph - N/A   Scattered Clouds
12:16 PM 23.0 °F 12.4 °F 9.1 °F 55% 30.32 in 10.0 mi WNW 10.4 mph - N/A   Scattered Clouds
12:35 PM 23.5 °F 12.4 °F 9.9 °F 56% 30.32 in 10.0 mi WNW 11.5 mph - N/A   Mostly Cloudy
12:55 PM 23.9 °F 15.8 °F 9.0 °F 53% 30.32 in 10.0 mi WNW 6.9 mph - N/A   Mostly Cloudy
1:15 PM 23.9 °F 15.0 °F 9.3 °F 54% 30.32 in 10.0 mi NW 8.1 mph - N/A   Overcast
1:35 PM 24.1 °F 16.0 °F 8.2 °F 51% 30.32 in 10.0 mi NW 6.9 mph - N/A   Overcast
1:36 PM 23.9 °F 15.0 °F 8.1 °F 51% 30.32 in 10.0 mi NW 8.1 mph - N/A   Overcast
1:55 PM 24.4 °F 14.9 °F 8.1 °F 50% 30.31 in 10.0 mi WNW 9.2 mph - N/A   Mostly Cloudy
2:15 PM 23.9 °F 12.9 °F 8.8 °F 53% 30.32 in 10.0 mi West 11.5 mph - N/A   Mostly Cloudy
2:35 PM 23.7 °F 15.6 °F 10.9 °F 58% 30.32 in 5.0 mi WNW 6.9 mph 21.9 mph N/A   Haze
2:36 PM 23.7 °F 15.6 °F 10.4 °F 57% 30.32 in 5.0 mi WNW 6.9 mph 21.9 mph N/A   Haze
2:55 PM 24.3 °F 12.7 °F 6.4 °F 47% 30.32 in 10.0 mi West 12.7 mph - N/A   Scattered Clouds
3:15 PM 23.7 °F 12.1 °F 8.1 °F 51% 30.32 in 10.0 mi West 12.7 mph - N/A   Clear
3:16 PM 23.9 °F 12.3 °F 7.7 °F 50% 30.32 in 10.0 mi West 12.7 mph - N/A   Clear
3:35 PM 22.8 °F 12.2 °F 8.4 °F 54% 30.32 in 10.0 mi West 10.4 mph - N/A   Mostly Cloudy
3:36 PM 22.6 °F 11.9 °F 8.1 °F 54% 30.32 in 10.0 mi West 10.4 mph - N/A   Mostly Cloudy
3:55 PM 23.2 °F 13.3 °F 8.2 °F 53% 30.32 in 10.0 mi West 9.2 mph 16.1 mph N/A   Scattered Clouds
4:15 PM 22.8 °F 12.2 °F 10.4 °F 59% 30.32 in 10.0 mi NW 10.4 mph - N/A   Mostly Cloudy
4:16 PM 22.8 °F 12.2 °F 10.2 °F 59% 30.32 in 10.0 mi NW 10.4 mph - N/A   Mostly Cloudy
4:35 PM 22.8 °F 11.5 °F 9.0 °F 55% 30.33 in 10.0 mi WNW 11.5 mph 17.3 mph N/A   Overcast
4:55 PM 21.7 °F 10.8 °F 7.7 °F 55% 30.33 in 10.0 mi WNW 10.4 mph - N/A   Mostly Cloudy
5:15 PM 21.0 °F 10.6 °F 8.1 °F 57% 30.34 in 10.0 mi WNW 9.2 mph - N/A   Overcast
5:16 PM 21.0 °F 11.4 °F 8.2 °F 58% 30.34 in 10.0 mi WNW 8.1 mph - N/A   Overcast
5:35 PM 19.9 °F 11.1 °F 7.7 °F 59% 30.33 in 10.0 mi WNW 6.9 mph - N/A   Scattered Clouds
5:36 PM 19.8 °F 10.8 °F 7.7 °F 60% 30.33 in 10.0 mi WNW 6.9 mph - N/A   Scattered Clouds
5:55 PM 18.3 °F 8.2 °F 6.8 °F 61% 30.34 in 10.0 mi WNW 8.1 mph - N/A   Clear
6:15 PM 18.0 °F 7.7 °F 6.8 °F 62% 30.34 in 10.0 mi WNW 8.1 mph - N/A   Clear
6:16 PM 18.0 °F 8.7 °F 6.8 °F 62% 30.34 in 10.0 mi WNW 6.9 mph - N/A   Clear
6:35 PM 17.8 °F 8.5 °F 7.5 °F 64% 30.34 in 10.0 mi WNW 6.9 mph - N/A   Scattered Clouds
6:55 PM 17.4 °F 8.0 °F 7.9 °F 66% 30.35 in 10.0 mi West 6.9 mph - N/A   Scattered Clouds
7:15 PM 17.1 °F 8.7 °F 7.9 °F 67% 30.35 in 10.0 mi West 5.8 mph - N/A   Clear
7:35 PM 17.1 °F 7.6 °F 7.5 °F 66% 30.36 in 10.0 mi West 6.9 mph - N/A   Clear
7:36 PM 17.1 °F 7.6 °F 7.5 °F 66% 30.36 in 10.0 mi West 6.9 mph - N/A   Clear
7:55 PM 17.6 °F 8.2 °F 7.7 °F 65% 30.36 in 10.0 mi West 6.9 mph - N/A   Clear
8:15 PM 17.1 °F 8.7 °F 7.7 °F 67% 30.35 in 10.0 mi West 5.8 mph - N/A   Clear
8:35 PM 16.2 °F 9.0 °F 7.7 °F 69% 30.35 in 10.0 mi West 4.6 mph - N/A   Clear
8:36 PM 16.2 °F 9.0 °F 7.5 °F 69% 30.35 in 10.0 mi West 4.6 mph - N/A   Clear
8:55 PM 15.3 °F 7.9 °F 7.7 °F 72% 30.35 in 10.0 mi WNW 4.6 mph - N/A   Clear
9:15 PM 15.3 °F 9.6 °F 8.4 °F 74% 30.35 in 10.0 mi WNW 3.5 mph - N/A   Clear
9:35 PM 12.0 °F - 6.8 °F 80% 30.35 in 10.0 mi Calm Calm - N/A   Clear
9:55 PM 12.7 °F - 8.2 °F 82% 30.35 in 10.0 mi Calm Calm - N/A   Clear
9:56 PM 12.6 °F - 8.1 °F 82% 30.35 in 10.0 mi Calm Calm - N/A   Clear
10:15 PM 10.9 °F 4.7 °F 7.2 °F 85% 30.35 in 10.0 mi West 3.5 mph - N/A   Clear
10:35 PM 10.6 °F 2.5 °F 5.4 °F 79% 30.35 in 10.0 mi NW 4.6 mph - N/A   Clear
10:55 PM 9.0 °F -0.9 °F 5.9 °F 87% 30.35 in 10.0 mi SSW 5.8 mph - N/A   Scattered Clouds
11:15 PM 11.8 °F 2.5 °F 7.3 °F 82% 30.35 in 10.0 mi SW 5.8 mph - N/A   Overcast
11:16 PM 11.7 °F 2.3 °F 7.2 °F 82% 30.35 in 10.0 mi SW 5.8 mph - N/A   Overcast
11:35 PM 12.0 °F - 7.2 °F 81% 30.34 in 10.0 mi Calm Calm - N/A   Overcast
11:55 PM 11.7 °F 5.5 °F 6.6 °F 80% 30.34 in 10.0 mi SSW 3.5 mph - N/A   Overcast